Jupiter, Florida Weather Center

Moon Phase Calendar



Online Cameras

 


      

Current Conditions in Jupiter
10/24/2021 1:21:37 PM

83°F
Feels Like 92
Clouds
Humidity
83%
Pressure
29.97"
Wind
8 mph (ESE)
Dew Point
77°F
UV Index
6/10 (High)
Visibility
6 mi

Hourly Forecast

Date & Time Sun, Oct 24
1:00 PM
Sun, Oct 24
2:00 PM
Sun, Oct 24
3:00 PM
Sun, Oct 24
4:00 PM
Sun, Oct 24
5:00 PM
Sun, Oct 24
6:00 PM
Sun, Oct 24
7:00 PM
Sun, Oct 24
8:00 PM
Sun, Oct 24
9:00 PM
Sun, Oct 24
10:00 PM
Sun, Oct 24
11:00 PM
Mon, Oct 25
12:00 AM
Mon, Oct 25
1:00 AM
Mon, Oct 25
2:00 AM
Mon, Oct 25
3:00 AM
Mon, Oct 25
4:00 AM
Mon, Oct 25
5:00 AM
Mon, Oct 25
6:00 AM
Mon, Oct 25
7:00 AM
Mon, Oct 25
8:00 AM
Mon, Oct 25
9:00 AM
Mon, Oct 25
10:00 AM
Mon, Oct 25
11:00 AM
Mon, Oct 25
12:00 PM
Mon, Oct 25
1:00 PM
Mon, Oct 25
2:00 PM
Mon, Oct 25
3:00 PM
Mon, Oct 25
4:00 PM
Mon, Oct 25
5:00 PM
Mon, Oct 25
6:00 PM
Mon, Oct 25
7:00 PM
Mon, Oct 25
8:00 PM
Mon, Oct 25
9:00 PM
Mon, Oct 25
10:00 PM
Mon, Oct 25
11:00 PM
Tue, Oct 26
12:00 AM
Tue, Oct 26
1:00 AM
Tue, Oct 26
2:00 AM
Tue, Oct 26
3:00 AM
Tue, Oct 26
4:00 AM
Tue, Oct 26
5:00 AM
Tue, Oct 26
6:00 AM
Tue, Oct 26
7:00 AM
Tue, Oct 26
8:00 AM
Tue, Oct 26
9:00 AM
Tue, Oct 26
10:00 AM
Tue, Oct 26
11:00 AM
Tue, Oct 26
12:00 PM
Condition
Clouds

Clouds

Clouds

Rain

Rain

Rain

Rain

Rain

Rain

Clouds

Clouds

Clouds

Clouds

Clouds

Rain

Rain

Rain

Rain

Clouds

Clouds

Clouds

Clouds

Clouds

Clouds

Clouds

Clouds

Rain

Rain

Rain

Rain

Rain

Rain

Clouds

Clouds

Clouds

Clouds

Clouds

Clouds

Clear

Clear

Clear

Clear

Clear

Clear

Clear

Clear

Clouds

Clouds
Temperature 83°F82°F82°F81°F80°F78°F78°F77°F76°F77°F77°F78°F78°F78°F78°F78°F78°F76°F76°F76°F77°F79°F81°F83°F84°F84°F85°F85°F84°F82°F81°F80°F80°F80°F79°F78°F78°F77°F77°F76°F76°F76°F76°F76°F77°F79°F82°F83°F
Feels Like 92°F90°F89°F87°F80°F80°F79°F78°F78°F78°F79°F79°F79°F79°F79°F79°F79°F78°F78°F77°F78°F79°F85°F87°F89°F89°F90°F90°F90°F88°F86°F85°F84°F80°F79°F80°F79°F79°F78°F78°F78°F77°F77°F77°F79°F79°F86°F89°F
Cloudiness 99%99%99%100%100%100%100%100%100%100%100%100%100%100%100%100%100%100%100%100%100%99%100%100%100%100%100%100%100%100%100%99%100%86%81%85%79%74%0%0%0%0%0%0%0%5%13%14%
Visibility 6 mi6 mi6 mi6 mi6 mi6 mi6 mi6 mi6 mi6 mi6 mi6 mi6 mi6 mi6 mi6 mi6 mi6 mi6 mi6 mi6 mi6 mi6 mi6 mi6 mi6 mi6 mi6 mi6 mi6 mi6 mi6 mi6 mi6 mi6 mi6 mi6 mi6 mi6 mi6 mi6 mi6 mi6 mi6 mi6 mi6 mi6 mi6 mi
Precipitation 6%18%77%97%100%100%100%100%84%84%84%84%84%80%59%86%87%87%86%86%33%37%41%42%46%45%67%71%87%100%96%92%33%29%21%14%14%14%0%0%0%0%0%0%0%0%0%0%
Humidity 83%81%80%81%83%84%83%85%86%84%82%81%80%80%81%83%84%87%88%87%85%78%70%66%65%64%64%65%68%73%75%76%76%77%79%80%82%84%85%87%88%89%90%90%86%81%74%69%
Dew Point 77°F76°F75°F75°F74°F73°F72°F72°F72°F72°F71°F71°F71°F71°F72°F72°F72°F72°F72°F72°F72°F72°F71°F70°F71°F71°F71°F72°F72°F72°F73°F72°F72°F72°F72°F72°F72°F72°F72°F72°F72°F72°F72°F73°F73°F73°F72°F72°F
Pressure 29.97"29.97"29.97"29.94"29.94"29.97"29.97"30"30.03"30.03"30.03"30"30"30"29.97"29.97"29.97"29.97"29.97"30"30"30.03"30.03"30"29.97"29.94"29.91"29.91"29.91"29.91"29.91"29.94"29.94"29.97"29.97"29.97"29.94"29.94"29.94"29.91"29.91"29.91"29.94"29.94"29.97"29.97"29.94"29.94"
Wind Speed 11.8 mph10 mph8.7 mph8 mph6.9 mph5.9 mph4.1 mph2.2 mph3.6 mph6.6 mph7.6 mph8 mph7.7 mph8.1 mph10.1 mph11.6 mph10.8 mph10.4 mph9.7 mph8.7 mph8.5 mph9.8 mph10.4 mph10.5 mph10.1 mph11.2 mph11.4 mph11.7 mph11.3 mph9.8 mph8.3 mph8 mph8.2 mph8.8 mph8.8 mph8.8 mph9.1 mph9.4 mph8.9 mph9.1 mph9.5 mph8.7 mph9.1 mph8.2 mph10.1 mph10.4 mph10.2 mph9.8 mph
Wind
Direction
103°
ESE
104°
ESE
97°
E
100°
E
104°
ESE
110°
ESE
102°
ESE
181°
S
103°
ESE
120°
ESE
124°
SE
141°
SE
154°
SSE
166°
SSE
170°
S
170°
S
197°
SSW
220°
SW
227°
SW
232°
SW
239°
WSW
252°
WSW
254°
WSW
253°
WSW
260°
W
263°
W
260°
W
262°
W
254°
WSW
254°
WSW
240°
WSW
243°
WSW
246°
WSW
269°
W
275°
W
266°
W
274°
W
277°
W
272°
W
271°
W
274°
W
274°
W
284°
WNW
271°
W
281°
W
287°
WNW
291°
WNW
290°
WNW

Daily Forecast

Date High Low Precip. Humidity
Today
Oct 24

Rain
83 °F
76 °F
100%
83%
Monday
Oct 25

Rain
85 °F
76 °F
100%
65%
Tuesday
Oct 26

Clouds
86 °F
76 °F
14%
62%
Wednesday
Oct 27

Clouds
81 °F
73 °F
0%
41%
Thursday
Oct 28

Rain
84 °F
76 °F
99%
69%
Friday
Oct 29

Clear
79 °F
70 °F
70%
48%
Saturday
Oct 30

Clouds
77 °F
72 °F
0%
52%
Sunday
Oct 31

Rain
78 °F
71 °F
39%
56%
Monday
Nov 1

Rain
77 °F
73 °F
25%
58%
Tuesday
Nov 2

Rain
78 °F
73 °F
33%
58%
Wednesday
Nov 3

Rain
79 °F
74 °F
27%
64%
Thursday
Nov 4

Rain
78 °F
74 °F
31%
64%
Friday
Nov 5

Rain
79 °F
74 °F
100%
74%
Saturday
Nov 6

Rain
79 °F
72 °F
33%
64%
Sunday
Nov 7

Clouds
80 °F
70 °F
0%
71%
Monday
Nov 8

Clear
74 °F
64 °F
0%
61%

Temperature 8-14 Day Outlook



Precipitation 8-14 Day Outlook




Quick Links
Jupiter, Florida News
Jupiter, Florida Photos
Jupiter, Florida Videos




About Us
Contact Us
Site Map
Search Site
Advertise With Us
   
Jupiter.CoastalTown.com
THE JUPITER, FLORIDA WEBSITE

Copyright 2021, Coastal Town
Privacy    |    Legal